Time,TemperatureF,DewpointF,PressureIn,WindDirection,WindDirectionDegrees,WindSpeedMPH,WindSpeedGustMPH,Humidity,HourlyPrecipIn,Conditions,Clouds,dailyrainin,SoftwareType,DateUTC
2013-08-09 00:01:00,70.1,67.0,29.83,SSW,193,0.0,2.0,90,0.00,,,0.00,VWS V14.01,2013-08-09 04:01:00,
2013-08-09 00:06:00,70.1,67.0,29.83,SSW,193,0.0,0.0,90,0.00,,,0.00,VWS V14.01,2013-08-09 04:06:00,
2013-08-09 00:11:00,70.0,66.9,29.83,SSW,193,0.0,1.0,90,0.00,,,0.00,VWS V14.01,2013-08-09 04:11:00,
2013-08-09 00:16:00,70.0,66.9,29.83,SSW,193,0.0,1.0,90,0.00,,,0.00,VWS V14.01,2013-08-09 04:16:00,
2013-08-09 00:21:00,69.9,66.8,29.83,SSW,193,0.0,1.0,90,0.00,,,0.00,VWS V14.01,2013-08-09 04:21:00,
2013-08-09 00:26:00,69.7,66.6,29.83,SSW,193,0.0,1.0,90,0.00,,,0.00,VWS V14.01,2013-08-09 04:26:00,
2013-08-09 00:31:00,69.6,66.5,29.83,SSW,193,0.0,1.0,90,0.00,,,0.00,VWS V14.01,2013-08-09 04:31:00,
2013-08-09 00:36:00,69.5,66.8,29.82,SSW,193,0.0,1.0,91,0.00,,,0.00,VWS V14.01,2013-08-09 04:36:00,
2013-08-09 00:41:00,69.4,66.7,29.82,South,187,0.0,1.0,91,0.00,,,0.00,VWS V14.01,2013-08-09 04:41:00,
2013-08-09 00:46:00,69.3,66.6,29.82,South,187,0.0,1.0,91,0.00,,,0.00,VWS V14.01,2013-08-09 04:46:00,
2013-08-09 00:51:00,69.1,66.4,29.82,SSW,193,0.0,2.0,91,0.00,,,0.00,VWS V14.01,2013-08-09 04:51:00,
2013-08-09 00:56:00,69.0,66.3,29.82,SSW,195,0.0,3.0,91,0.00,,,0.00,VWS V14.01,2013-08-09 04:56:00,
2013-08-09 01:01:00,68.9,66.2,29.83,SSW,196,0.0,3.0,91,0.00,,,0.00,VWS V14.01,2013-08-09 05:01:00,
2013-08-09 01:06:00,68.8,65.8,29.83,South,181,2.0,3.0,90,0.00,,,0.00,VWS V14.01,2013-08-09 05:06:00,
2013-08-09 01:11:00,68.6,64.9,29.82,SSW,200,0.0,3.0,88,0.00,,,0.00,VWS V14.01,2013-08-09 05:11:00,
2013-08-09 01:16:00,68.5,64.8,29.82,SSW,195,0.0,4.0,88,0.00,,,0.00,VWS V14.01,2013-08-09 05:16:00,
2013-08-09 01:21:00,68.4,64.4,29.82,SSW,197,0.0,4.0,87,0.00,,,0.00,VWS V14.01,2013-08-09 05:21:00,
2013-08-09 01:26:00,68.4,64.7,29.82,SSW,197,0.0,4.0,88,0.00,,,0.00,VWS V14.01,2013-08-09 05:26:00,
2013-08-09 01:31:00,68.3,64.6,29.82,SSW,197,0.0,4.0,88,0.00,,,0.00,VWS V14.01,2013-08-09 05:31:00,
2013-08-09 01:36:00,68.3,64.9,29.82,SSW,197,0.0,4.0,89,0.00,,,0.00,VWS V14.01,2013-08-09 05:36:00,
2013-08-09 01:41:00,68.1,64.7,29.82,SSW,197,0.0,4.0,89,0.00,,,0.00,VWS V14.01,2013-08-09 05:41:00,
2013-08-09 01:46:00,68.1,64.7,29.82,SSW,197,0.0,4.0,89,0.00,,,0.00,VWS V14.01,2013-08-09 05:46:00,
2013-08-09 01:51:00,68.0,64.6,29.83,SSW,197,0.0,4.0,89,0.00,,,0.00,VWS V14.01,2013-08-09 05:51:00,
2013-08-09 01:56:00,67.9,64.5,29.83,SSW,197,0.0,4.0,89,0.00,,,0.00,VWS V14.01,2013-08-09 05:56:00,
2013-08-09 02:01:00,67.8,64.4,29.82,SSW,194,1.0,4.0,89,0.00,,,0.00,VWS V14.01,2013-08-09 06:01:00,
2013-08-09 02:06:00,67.8,64.4,29.82,South,188,0.0,2.0,89,0.00,,,0.00,VWS V14.01,2013-08-09 06:06:00,
2013-08-09 02:11:00,67.7,64.3,29.82,SSW,201,0.0,3.0,89,0.00,,,0.00,VWS V14.01,2013-08-09 06:11:00,
2013-08-09 02:16:00,67.6,63.9,29.81,SSW,201,1.0,3.0,88,0.00,,,0.00,VWS V14.01,2013-08-09 06:16:00,
2013-08-09 02:21:00,67.5,63.5,29.81,SSW,198,0.0,3.0,87,0.00,,,0.00,VWS V14.01,2013-08-09 06:21:00,
2013-08-09 02:26:00,67.5,63.2,29.82,SSW,198,0.0,3.0,86,0.00,,,0.00,VWS V14.01,2013-08-09 06:26:00,
2013-08-09 02:31:00,67.5,63.2,29.82,SSW,198,0.0,3.0,86,0.00,,,0.00,VWS V14.01,2013-08-09 06:31:00,
2013-08-09 02:36:00,67.4,63.1,29.81,SSW,206,0.0,3.0,86,0.00,,,0.00,VWS V14.01,2013-08-09 06:36:00,
2013-08-09 02:41:00,67.3,62.6,29.81,SSW,206,0.0,3.0,85,0.00,,,0.00,VWS V14.01,2013-08-09 06:41:00,
2013-08-09 02:46:00,67.3,62.6,29.81,SSW,205,0.0,3.0,85,0.00,,,0.00,VWS V14.01,2013-08-09 06:46:00,
2013-08-09 02:51:00,67.3,62.3,29.81,SSW,194,0.0,3.0,84,0.00,,,0.00,VWS V14.01,2013-08-09 06:51:00,
2013-08-09 02:56:00,67.3,62.3,29.81,SSW,194,0.0,3.0,84,0.00,,,0.00,VWS V14.01,2013-08-09 06:56:00,
2013-08-09 03:01:00,67.3,62.3,29.82,SSW,194,0.0,3.0,84,0.00,,,0.00,VWS V14.01,2013-08-09 07:01:00,
2013-08-09 03:06:00,67.2,62.2,29.82,SSW,194,0.0,0.0,84,0.00,,,0.00,VWS V14.01,2013-08-09 07:06:00,
2013-08-09 03:11:00,67.2,61.9,29.81,SSW,194,0.0,1.0,83,0.00,,,0.00,VWS V14.01,2013-08-09 07:11:00,
2013-08-09 03:16:00,67.1,61.8,29.81,SSW,193,0.0,1.0,83,0.00,,,0.00,VWS V14.01,2013-08-09 07:16:00,
2013-08-09 03:21:00,67.1,61.8,29.81,SSW,193,0.0,1.0,83,0.00,,,0.00,VWS V14.01,2013-08-09 07:21:00,
2013-08-09 03:26:00,67.1,61.8,29.81,SSW,194,0.0,1.0,83,0.00,,,0.00,VWS V14.01,2013-08-09 07:26:00,
2013-08-09 03:31:00,67.0,61.7,29.81,SSW,194,0.0,1.0,83,0.00,,,0.00,VWS V14.01,2013-08-09 07:31:00,
2013-08-09 03:36:00,67.0,61.3,29.81,SSW,194,0.0,1.0,82,0.00,,,0.00,VWS V14.01,2013-08-09 07:36:00,
2013-08-09 03:41:00,66.9,61.2,29.81,SSW,194,0.0,2.0,82,0.00,,,0.00,VWS V14.01,2013-08-09 07:41:00,
2013-08-09 03:46:00,66.9,61.2,29.81,SSW,195,0.0,2.0,82,0.00,,,0.00,VWS V14.01,2013-08-09 07:46:00,
2013-08-09 03:51:00,66.9,61.2,29.81,SSW,195,0.0,2.0,82,0.00,,,0.00,VWS V14.01,2013-08-09 07:51:00,
2013-08-09 03:56:00,66.9,61.2,29.81,SSW,195,0.0,2.0,82,0.00,,,0.00,VWS V14.01,2013-08-09 07:56:00,
2013-08-09 04:01:00,66.8,60.8,29.81,SSW,195,0.0,2.0,81,0.00,,,0.00,VWS V14.01,2013-08-09 08:01:00,
2013-08-09 04:06:00,66.8,60.8,29.81,SSW,195,0.0,0.0,81,0.00,,,0.00,VWS V14.01,2013-08-09 08:06:00,
2013-08-09 04:11:00,66.8,60.8,29.81,SSW,195,0.0,0.0,81,0.00,,,0.00,VWS V14.01,2013-08-09 08:11:00,
2013-08-09 04:16:00,66.8,60.8,29.81,SSW,195,0.0,0.0,81,0.00,,,0.00,VWS V14.01,2013-08-09 08:16:00,
2013-08-09 04:21:00,66.7,60.7,29.81,SSW,195,0.0,0.0,81,0.00,,,0.00,VWS V14.01,2013-08-09 08:21:00,
2013-08-09 04:26:00,66.7,60.7,29.81,SSW,195,0.0,0.0,81,0.00,,,0.00,VWS V14.01,2013-08-09 08:26:00,
2013-08-09 04:31:00,66.7,61.0,29.81,SSW,195,0.0,0.0,82,0.00,,,0.00,VWS V14.01,2013-08-09 08:31:00,
2013-08-09 04:36:00,66.6,60.6,29.81,SSW,195,0.0,0.0,81,0.00,,,0.00,VWS V14.01,2013-08-09 08:36:00,
2013-08-09 04:41:00,66.7,60.7,29.81,SSW,195,0.0,1.0,81,0.00,,,0.00,VWS V14.01,2013-08-09 08:41:00,
2013-08-09 04:46:00,66.7,61.0,29.81,SSW,195,0.0,1.0,82,0.00,,,0.00,VWS V14.01,2013-08-09 08:46:00,
2013-08-09 04:51:00,66.6,60.9,29.81,SSW,195,0.0,1.0,82,0.00,,,0.00,VWS V14.01,2013-08-09 08:51:00,
2013-08-09 04:56:00,66.6,60.9,29.80,SSW,195,0.0,2.0,82,0.00,,,0.00,VWS V14.01,2013-08-09 08:56:00,
2013-08-09 05:01:00,66.6,61.3,29.80,SSW,195,0.0,2.0,83,0.00,,,0.00,VWS V14.01,2013-08-09 09:01:00,
2013-08-09 05:06:00,66.4,60.7,29.80,East,89,0.0,0.0,82,0.00,,,0.00,VWS V14.01,2013-08-09 09:06:00,
2013-08-09 05:11:00,66.4,61.1,29.81,East,89,0.0,0.0,83,0.00,,,0.00,VWS V14.01,2013-08-09 09:11:00,
2013-08-09 05:16:00,66.3,60.7,29.81,East,89,0.0,0.0,82,0.00,,,0.00,VWS V14.01,2013-08-09 09:16:00,
2013-08-09 05:21:00,66.2,60.9,29.81,East,89,0.0,0.0,83,0.00,,,0.00,VWS V14.01,2013-08-09 09:21:00,
2013-08-09 05:26:00,66.1,60.8,29.82,East,89,0.0,0.0,83,0.00,,,0.00,VWS V14.01,2013-08-09 09:26:00,
2013-08-09 05:31:00,66.1,60.8,29.81,East,89,0.0,0.0,83,0.00,,,0.00,VWS V14.01,2013-08-09 09:31:00,
2013-08-09 05:36:00,66.1,61.1,29.81,East,89,0.0,0.0,84,0.00,,,0.00,VWS V14.01,2013-08-09 09:36:00,
2013-08-09 05:41:00,66.0,61.0,29.81,East,89,0.0,0.0,84,0.00,,,0.00,VWS V14.01,2013-08-09 09:41:00,
2013-08-09 05:46:00,66.0,61.4,29.82,East,89,0.0,1.0,85,0.00,,,0.00,VWS V14.01,2013-08-09 09:46:00,
2013-08-09 05:51:00,65.9,61.6,29.82,East,91,0.0,1.0,86,0.00,,,0.00,VWS V14.01,2013-08-09 09:51:00,
2013-08-09 05:56:00,65.8,61.5,29.82,East,91,0.0,1.0,86,0.00,,,0.00,VWS V14.01,2013-08-09 09:56:00,
2013-08-09 06:01:00,65.7,61.1,29.82,East,91,0.0,1.0,85,0.00,,,0.00,VWS V14.01,2013-08-09 10:01:00,
2013-08-09 06:06:00,65.6,60.6,29.83,East,91,0.0,1.0,84,0.00,,,0.00,VWS V14.01,2013-08-09 10:06:00,
2013-08-09 06:11:00,65.5,60.5,29.83,East,90,0.0,1.0,84,0.00,,,0.00,VWS V14.01,2013-08-09 10:11:00,
2013-08-09 06:16:00,65.5,60.2,29.82,East,91,0.0,1.0,83,0.00,,,0.00,VWS V14.01,2013-08-09 10:16:00,
2013-08-09 06:21:00,65.4,60.1,29.82,East,90,0.0,1.0,83,0.00,,,0.00,VWS V14.01,2013-08-09 10:21:00,
2013-08-09 06:26:00,65.2,59.9,29.82,East,91,0.0,1.0,83,0.00,,,0.00,VWS V14.01,2013-08-09 10:26:00,
2013-08-09 06:31:00,65.1,60.2,29.83,East,90,0.0,1.0,84,0.00,,,0.00,VWS V14.01,2013-08-09 10:31:00,
2013-08-09 06:36:00,64.9,60.0,29.83,East,90,0.0,1.0,84,0.00,,,0.00,VWS V14.01,2013-08-09 10:36:00,
2013-08-09 06:41:00,64.7,60.1,29.83,East,90,0.0,1.0,85,0.00,,,0.00,VWS V14.01,2013-08-09 10:41:00,
2013-08-09 06:46:00,64.7,60.1,29.82,East,91,0.0,1.0,85,0.00,,,0.00,VWS V14.01,2013-08-09 10:46:00,
2013-08-09 06:51:00,64.7,60.4,29.83,East,90,0.0,1.0,86,0.00,,,0.00,VWS V14.01,2013-08-09 10:51:00,
2013-08-09 06:56:00,64.7,60.4,29.83,East,90,0.0,1.0,86,0.00,,,0.00,VWS V14.01,2013-08-09 10:56:00,
2013-08-09 07:01:00,64.6,60.0,29.82,East,90,0.0,1.0,85,0.00,,,0.00,VWS V14.01,2013-08-09 11:01:00,
2013-08-09 07:06:00,64.6,59.7,29.82,East,90,0.0,0.0,84,0.00,,,0.00,VWS V14.01,2013-08-09 11:06:00,
2013-08-09 07:11:00,64.6,59.7,29.82,East,90,0.0,0.0,84,0.00,,,0.00,VWS V14.01,2013-08-09 11:11:00,
2013-08-09 07:16:00,64.6,59.3,29.83,East,91,0.0,0.0,83,0.00,,,0.00,VWS V14.01,2013-08-09 11:16:00,
2013-08-09 07:21:00,64.6,59.3,29.82,East,96,0.0,1.0,83,0.00,,,0.00,VWS V14.01,2013-08-09 11:21:00,
2013-08-09 07:26:00,64.7,59.1,29.82,East,96,0.0,1.0,82,0.00,,,0.00,VWS V14.01,2013-08-09 11:26:00,
2013-08-09 07:31:00,64.7,58.7,29.83,East,96,0.0,1.0,81,0.00,,,0.00,VWS V14.01,2013-08-09 11:31:00,
2013-08-09 07:36:00,64.8,59.2,29.83,East,96,0.0,1.0,82,0.00,,,0.00,VWS V14.01,2013-08-09 11:36:00,
2013-08-09 07:41:00,64.8,59.2,29.83,East,96,0.0,1.0,82,0.00,,,0.00,VWS V14.01,2013-08-09 11:41:00,
2013-08-09 07:46:00,64.9,59.6,29.83,East,96,0.0,1.0,83,0.00,,,0.00,VWS V14.01,2013-08-09 11:46:00,
2013-08-09 07:51:00,65.0,59.7,29.83,East,96,0.0,1.0,83,0.00,,,0.00,VWS V14.01,2013-08-09 11:51:00,
2013-08-09 07:56:00,65.0,59.4,29.83,East,96,0.0,1.0,82,0.00,,,0.00,VWS V14.01,2013-08-09 11:56:00,
2013-08-09 08:01:00,65.1,59.5,29.83,East,96,0.0,1.0,82,0.00,,,0.00,VWS V14.01,2013-08-09 12:01:00,
2013-08-09 08:06:00,65.1,59.1,29.84,East,96,0.0,1.0,81,0.00,,,0.00,VWS V14.01,2013-08-09 12:06:00,
2013-08-09 08:11:00,65.1,59.1,29.83,ENE,59,0.0,2.0,81,0.00,,,0.00,VWS V14.01,2013-08-09 12:11:00,
2013-08-09 08:16:00,65.1,58.8,29.84,ENE,60,0.0,2.0,80,0.00,,,0.00,VWS V14.01,2013-08-09 12:16:00,
2013-08-09 08:21:00,65.2,58.9,29.84,ENE,60,0.0,2.0,80,0.00,,,0.00,VWS V14.01,2013-08-09 12:21:00,
2013-08-09 08:26:00,65.3,59.0,29.84,ENE,58,0.0,2.0,80,0.00,,,0.00,VWS V14.01,2013-08-09 12:26:00,
2013-08-09 08:31:00,65.5,59.5,29.84,ENE,58,0.0,2.0,81,0.00,,,0.00,VWS V14.01,2013-08-09 12:31:00,
2013-08-09 08:36:00,65.6,58.9,29.84,SSW,209,0.0,2.0,79,0.00,,,0.00,VWS V14.01,2013-08-09 12:36:00,
2013-08-09 08:41:00,65.7,59.4,29.84,ENE,78,0.0,2.0,80,0.00,,,0.00,VWS V14.01,2013-08-09 12:41:00,
2013-08-09 08:46:00,65.7,59.0,29.84,ENE,77,0.0,2.0,79,0.00,,,0.00,VWS V14.01,2013-08-09 12:46:00,
2013-08-09 08:51:00,65.8,59.1,29.84,ENE,78,0.0,2.0,79,0.00,,,0.00,VWS V14.01,2013-08-09 12:51:00,
2013-08-09 08:56:00,65.9,59.6,29.84,ENE,77,0.0,2.0,80,0.00,,,0.00,VWS V14.01,2013-08-09 12:56:00,
2013-08-09 09:01:00,66.0,59.0,29.85,ENE,75,0.0,2.0,78,0.00,,,0.00,VWS V14.01,2013-08-09 13:01:00,
2013-08-09 09:06:00,66.0,59.0,29.85,ENE,72,0.0,3.0,78,0.00,,,0.00,VWS V14.01,2013-08-09 13:06:00,
2013-08-09 09:11:00,65.9,58.5,29.84,ENE,65,0.0,3.0,77,0.00,,,0.00,VWS V14.01,2013-08-09 13:11:00,
2013-08-09 09:16:00,66.0,58.6,29.84,NW,315,0.0,3.0,77,0.00,,,0.00,VWS V14.01,2013-08-09 13:16:00,
2013-08-09 09:21:00,66.0,59.3,29.85,North,349,0.0,3.0,79,0.00,,,0.00,VWS V14.01,2013-08-09 13:21:00,
2013-08-09 09:26:00,66.0,59.0,29.85,East,82,0.0,4.0,78,0.00,,,0.00,VWS V14.01,2013-08-09 13:26:00,
2013-08-09 09:31:00,66.1,59.0,29.84,East,81,0.0,4.0,78,0.00,,,0.00,VWS V14.01,2013-08-09 13:31:00,
2013-08-09 09:36:00,66.2,59.2,29.84,East,88,1.0,4.0,78,0.00,,,0.00,VWS V14.01,2013-08-09 13:36:00,
2013-08-09 09:41:00,66.5,59.1,29.84,WSW,238,1.0,4.0,77,0.00,,,0.00,VWS V14.01,2013-08-09 13:41:00,
2013-08-09 09:46:00,66.9,59.5,29.84,ENE,60,0.0,5.0,77,0.00,,,0.00,VWS V14.01,2013-08-09 13:46:00,
2013-08-09 09:51:00,67.3,59.5,29.84,ENE,69,1.0,5.0,76,0.00,,,0.00,VWS V14.01,2013-08-09 13:51:00,
2013-08-09 09:56:00,67.6,59.4,29.84,SSW,193,1.0,5.0,75,0.00,,,0.00,VWS V14.01,2013-08-09 13:56:00,
2013-08-09 10:01:00,68.0,59.8,29.84,SSW,200,0.0,5.0,75,0.00,,,0.00,VWS V14.01,2013-08-09 14:01:00,
2013-08-09 10:06:00,68.6,60.0,29.84,SSE,168,1.0,1.0,74,0.00,,,0.00,VWS V14.01,2013-08-09 14:06:00,
2013-08-09 10:11:00,69.0,59.6,29.85,ENE,70,4.0,4.0,72,0.00,,,0.00,VWS V14.01,2013-08-09 14:11:00,
2013-08-09 10:16:00,69.1,59.7,29.85,NE,53,0.0,4.0,72,0.00,,,0.00,VWS V14.01,2013-08-09 14:16:00,
2013-08-09 10:21:00,69.5,60.1,29.85,NE,54,0.0,4.0,72,0.00,,,0.00,VWS V14.01,2013-08-09 14:21:00,
2013-08-09 10:26:00,69.9,60.1,29.85,NE,53,1.0,4.0,71,0.00,,,0.00,VWS V14.01,2013-08-09 14:26:00,
2013-08-09 10:30:00,70.2,60.0,29.85,South,184,0.0,4.0,70,0.00,,,0.00,VWS V14.01,2013-08-09 14:30:00,
2013-08-09 10:35:00,70.5,59.4,29.85,East,86,0.0,4.0,68,0.00,,,0.00,VWS V14.01,2013-08-09 14:35:00,
2013-08-09 10:41:00,70.7,59.6,29.85,East,86,0.0,4.0,68,0.00,,,0.00,VWS V14.01,2013-08-09 14:41:00,
2013-08-09 10:45:00,71.0,59.9,29.86,ENE,71,0.0,4.0,68,0.00,,,0.00,VWS V14.01,2013-08-09 14:45:00,
2013-08-09 10:50:00,71.2,60.1,29.85,SSW,205,0.0,4.0,68,0.00,,,0.00,VWS V14.01,2013-08-09 14:50:00,
2013-08-09 10:55:00,71.5,59.6,29.85,SSW,197,3.0,4.0,66,0.00,,,0.00,VWS V14.01,2013-08-09 14:55:00,
2013-08-09 11:00:00,71.5,60.4,29.86,East,84,1.0,4.0,68,0.00,,,0.00,VWS V14.01,2013-08-09 15:00:00,
2013-08-09 11:05:00,71.6,59.7,29.86,NNW,329,2.0,4.0,66,0.00,,,0.00,VWS V14.01,2013-08-09 15:05:00,
2013-08-09 11:10:00,71.8,59.0,29.86,SW,214,1.0,4.0,64,0.00,,,0.00,VWS V14.01,2013-08-09 15:10:00,
2013-08-09 11:15:00,71.9,58.6,29.86,NNE,30,1.0,4.0,63,0.00,,,0.00,VWS V14.01,2013-08-09 15:15:00,
2013-08-09 11:21:00,72.1,59.3,29.86,South,184,2.0,4.0,64,0.00,,,0.00,VWS V14.01,2013-08-09 15:21:00,
2013-08-09 11:26:00,72.2,57.1,29.86,SSW,195,0.0,4.0,59,0.00,,,0.00,VWS V14.01,2013-08-09 15:26:00,
2013-08-09 11:31:00,72.0,58.3,29.86,SSW,198,0.0,4.0,62,0.00,,,0.00,VWS V14.01,2013-08-09 15:31:00,
2013-08-09 11:36:00,72.2,57.6,29.86,SSW,201,1.0,5.0,60,0.00,,,0.00,VWS V14.01,2013-08-09 15:36:00,
2013-08-09 11:41:00,72.4,57.8,29.86,ENE,70,0.0,5.0,60,0.00,,,0.00,VWS V14.01,2013-08-09 15:41:00,
2013-08-09 11:46:00,72.6,58.4,29.86,SSW,204,0.0,5.0,61,0.00,,,0.00,VWS V14.01,2013-08-09 15:46:00,
2013-08-09 11:51:00,72.9,57.8,29.86,SSW,203,2.0,5.0,59,0.00,,,0.00,VWS V14.01,2013-08-09 15:51:00,
2013-08-09 11:56:00,72.9,58.2,29.86,SSW,203,0.0,6.0,60,0.00,,,0.00,VWS V14.01,2013-08-09 15:56:00,
2013-08-09 12:01:00,72.7,58.0,29.86,South,191,1.0,6.0,60,0.00,,,0.00,VWS V14.01,2013-08-09 16:01:00,
2013-08-09 12:06:00,72.6,58.4,29.86,SSW,198,0.0,1.0,61,0.00,,,0.00,VWS V14.01,2013-08-09 16:06:00,
2013-08-09 12:11:00,72.8,59.5,29.86,East,97,1.0,6.0,63,0.00,,,0.00,VWS V14.01,2013-08-09 16:11:00,
2013-08-09 12:16:00,73.1,59.8,29.86,NE,45,1.0,6.0,63,0.00,,,0.00,VWS V14.01,2013-08-09 16:16:00,
2013-08-09 12:21:00,73.3,59.0,29.86,NE,53,0.0,6.0,61,0.00,,,0.00,VWS V14.01,2013-08-09 16:21:00,
2013-08-09 12:26:00,73.4,58.2,29.86,ENE,74,0.0,6.0,59,0.00,,,0.00,VWS V14.01,2013-08-09 16:26:00,
2013-08-09 12:31:00,73.4,57.7,29.86,WSW,256,1.0,6.0,58,0.00,,,0.00,VWS V14.01,2013-08-09 16:31:00,
2013-08-09 12:36:00,73.5,59.2,29.86,ENE,71,1.0,6.0,61,0.00,,,0.00,VWS V14.01,2013-08-09 16:36:00,
2013-08-09 12:41:00,73.8,57.6,29.86,East,86,0.0,6.0,57,0.00,,,0.00,VWS V14.01,2013-08-09 16:41:00,
2013-08-09 12:45:00,74.0,58.3,29.86,South,181,0.0,6.0,58,0.00,,,0.00,VWS V14.01,2013-08-09 16:45:00,
2013-08-09 12:50:00,74.2,57.0,29.86,SSW,197,1.0,6.0,55,0.00,,,0.00,VWS V14.01,2013-08-09 16:50:00,
2013-08-09 12:55:00,74.2,58.0,29.86,NE,53,0.0,6.0,57,0.00,,,0.00,VWS V14.01,2013-08-09 16:55:00,
2013-08-09 13:00:00,74.4,58.2,29.85,NNE,30,0.0,6.0,57,0.00,,,0.00,VWS V14.01,2013-08-09 17:00:00,
2013-08-09 13:05:00,74.5,57.3,29.85,NNW,344,1.0,4.0,55,0.00,,,0.00,VWS V14.01,2013-08-09 17:05:00,
2013-08-09 13:10:00,74.7,58.5,29.85,East,92,3.0,4.0,57,0.00,,,0.00,VWS V14.01,2013-08-09 17:10:00,
2013-08-09 13:15:00,75.2,60.4,29.85,East,91,2.0,5.0,60,0.00,,,0.00,VWS V14.01,2013-08-09 17:15:00,
2013-08-09 13:20:00,75.5,60.2,29.85,SSW,203,0.0,5.0,59,0.00,,,0.00,VWS V14.01,2013-08-09 17:20:00,
2013-08-09 13:25:00,75.6,57.8,29.85,SSW,203,0.0,5.0,54,0.00,,,0.00,VWS V14.01,2013-08-09 17:25:00,
2013-08-09 13:30:00,75.9,58.6,29.86,East,82,2.0,5.0,55,0.00,,,0.00,VWS V14.01,2013-08-09 17:30:00,
2013-08-09 13:35:00,76.3,57.4,29.86,ENE,59,1.0,5.0,52,0.00,,,0.00,VWS V14.01,2013-08-09 17:35:00,
2013-08-09 13:40:00,76.1,56.7,29.86,NE,46,0.0,5.0,51,0.00,,,0.00,VWS V14.01,2013-08-09 17:40:00,
2013-08-09 13:45:00,76.2,58.4,29.86,NE,46,0.0,5.0,54,0.00,,,0.00,VWS V14.01,2013-08-09 17:45:00,
2013-08-09 13:50:00,76.6,56.0,29.86,ENE,61,0.0,5.0,49,0.00,,,0.00,VWS V14.01,2013-08-09 17:50:00,
2013-08-09 13:55:00,77.2,59.3,29.86,SSE,162,0.0,5.0,54,0.00,,,0.00,VWS V14.01,2013-08-09 17:55:00,
2013-08-09 14:00:00,77.6,57.0,29.86,East,83,3.0,5.0,49,0.00,,,0.00,VWS V14.01,2013-08-09 18:00:00,
2013-08-09 14:05:00,77.5,57.4,29.86,ENE,63,0.0,2.0,50,0.00,,,0.00,VWS V14.01,2013-08-09 18:05:00,
2013-08-09 14:10:00,77.7,57.6,29.86,ENE,75,0.0,2.0,50,0.00,,,0.00,VWS V14.01,2013-08-09 18:10:00,
2013-08-09 14:15:00,77.7,59.2,29.86,ENE,57,0.0,5.0,53,0.00,,,0.00,VWS V14.01,2013-08-09 18:15:00,
2013-08-09 14:20:00,78.1,57.4,29.86,SSW,204,0.0,5.0,49,0.00,,,0.00,VWS V14.01,2013-08-09 18:20:00,
2013-08-09 14:25:00,78.5,57.2,29.86,SSW,197,0.0,5.0,48,0.00,,,0.00,VWS V14.01,2013-08-09 18:25:00,
2013-08-09 14:30:00,78.4,58.2,29.85,North,352,2.0,5.0,50,0.00,,,0.00,VWS V14.01,2013-08-09 18:30:00,
2013-08-09 14:35:00,78.6,57.3,29.85,West,271,0.0,5.0,48,0.00,,,0.00,VWS V14.01,2013-08-09 18:35:00,
2013-08-09 14:40:00,78.4,58.8,29.85,NE,37,1.0,5.0,51,0.00,,,0.00,VWS V14.01,2013-08-09 18:40:00,
2013-08-09 14:45:00,78.8,60.8,29.85,East,83,0.0,5.0,54,0.00,,,0.00,VWS V14.01,2013-08-09 18:45:00,
2013-08-09 14:50:00,78.9,57.6,29.85,NE,36,0.0,5.0,48,0.00,,,0.00,VWS V14.01,2013-08-09 18:50:00,
2013-08-09 14:55:00,78.9,58.7,29.85,ESE,108,1.0,5.0,50,0.00,,,0.00,VWS V14.01,2013-08-09 18:55:00,
2013-08-09 15:00:00,78.8,58.6,29.85,East,89,0.0,5.0,50,0.00,,,0.00,VWS V14.01,2013-08-09 19:00:00,
2013-08-09 15:05:00,78.8,60.2,29.85,ESE,103,0.0,1.0,53,0.00,,,0.00,VWS V14.01,2013-08-09 19:05:00,
2013-08-09 15:10:00,79.2,58.4,29.85,NE,47,1.0,3.0,49,0.00,,,0.00,VWS V14.01,2013-08-09 19:10:00,
2013-08-09 15:15:00,78.8,58.0,29.85,East,82,0.0,5.0,49,0.00,,,0.00,VWS V14.01,2013-08-09 19:15:00,
2013-08-09 15:20:00,79.0,59.9,29.85,ENE,74,0.0,5.0,52,0.00,,,0.00,VWS V14.01,2013-08-09 19:20:00,
2013-08-09 15:25:00,79.2,60.1,29.85,ENE,72,4.0,5.0,52,0.00,,,0.00,VWS V14.01,2013-08-09 19:25:00,
2013-08-09 15:30:00,79.0,58.8,29.85,NE,49,1.0,5.0,50,0.00,,,0.00,VWS V14.01,2013-08-09 19:30:00,
2013-08-09 15:35:00,79.0,59.3,29.85,WNW,293,0.0,5.0,51,0.00,,,0.00,VWS V14.01,2013-08-09 19:35:00,
2013-08-09 15:40:00,79.4,59.2,29.85,SSW,204,0.0,5.0,50,0.00,,,0.00,VWS V14.01,2013-08-09 19:40:00,
2013-08-09 15:45:00,79.5,60.3,29.85,SW,224,0.0,5.0,52,0.00,,,0.00,VWS V14.01,2013-08-09 19:45:00,
2013-08-09 15:50:00,79.6,60.4,29.84,East,96,2.0,5.0,52,0.00,,,0.00,VWS V14.01,2013-08-09 19:50:00,
2013-08-09 15:55:00,79.0,59.3,29.84,East,86,0.0,5.0,51,0.00,,,0.00,VWS V14.01,2013-08-09 19:55:00,
2013-08-09 16:00:00,79.0,62.0,29.84,East,88,1.0,5.0,56,0.00,,,0.00,VWS V14.01,2013-08-09 20:00:00,
2013-08-09 16:05:00,79.0,61.5,29.84,NNE,17,1.0,3.0,55,0.00,,,0.00,VWS V14.01,2013-08-09 20:05:00,
2013-08-09 16:10:00,79.5,60.9,29.84,East,101,0.0,3.0,53,0.00,,,0.00,VWS V14.01,2013-08-09 20:10:00,
2013-08-09 16:15:00,79.9,61.3,29.84,ESE,104,0.0,3.0,53,0.00,,,0.00,VWS V14.01,2013-08-09 20:15:00,
2013-08-09 16:20:00,80.2,63.1,29.84,East,94,1.0,3.0,56,0.00,,,0.00,VWS V14.01,2013-08-09 20:20:00,
2013-08-09 16:25:00,80.5,61.8,29.84,North,355,0.0,3.0,53,0.00,,,0.00,VWS V14.01,2013-08-09 20:25:00,
2013-08-09 16:30:00,80.3,60.0,29.84,NE,53,0.0,7.0,50,0.00,,,0.00,VWS V14.01,2013-08-09 20:30:00,
2013-08-09 16:35:00,80.3,59.4,29.84,NE,46,3.0,7.0,49,0.00,,,0.00,VWS V14.01,2013-08-09 20:35:00,
2013-08-09 16:40:00,79.9,59.0,29.84,NW,318,1.0,7.0,49,0.00,,,0.00,VWS V14.01,2013-08-09 20:40:00,
2013-08-09 16:45:00,80.1,59.8,29.84,East,97,4.0,7.0,50,0.00,,,0.00,VWS V14.01,2013-08-09 20:45:00,
2013-08-09 16:50:00,79.7,60.5,29.84,North,8,0.0,7.0,52,0.00,,,0.00,VWS V14.01,2013-08-09 20:50:00,
2013-08-09 16:55:00,80.1,59.8,29.84,East,93,1.0,7.0,50,0.00,,,0.00,VWS V14.01,2013-08-09 20:55:00,
2013-08-09 17:00:00,80.1,60.4,29.85,NE,35,2.0,7.0,51,0.00,,,0.00,VWS V14.01,2013-08-09 21:00:00,
2013-08-09 17:05:00,80.0,62.4,29.84,East,97,4.0,6.0,55,0.00,,,0.00,VWS V14.01,2013-08-09 21:05:00,
2013-08-09 17:10:00,80.3,61.1,29.84,NW,308,1.0,6.0,52,0.00,,,0.00,VWS V14.01,2013-08-09 21:10:00,
2013-08-09 17:15:00,80.1,60.4,29.84,NE,53,2.0,6.0,51,0.00,,,0.00,VWS V14.01,2013-08-09 21:15:00,
2013-08-09 17:20:00,80.2,61.5,29.84,ENE,73,2.0,6.0,53,0.00,,,0.00,VWS V14.01,2013-08-09 21:20:00,
2013-08-09 17:25:00,80.3,61.6,29.84,NE,37,0.0,6.0,53,0.00,,,0.00,VWS V14.01,2013-08-09 21:25:00,
2013-08-09 17:30:00,80.0,60.8,29.84,NE,37,2.0,6.0,52,0.00,,,0.00,VWS V14.01,2013-08-09 21:30:00,
2013-08-09 17:35:00,79.7,61.1,29.84,ENE,60,0.0,6.0,53,0.00,,,0.00,VWS V14.01,2013-08-09 21:35:00,
2013-08-09 17:40:00,79.8,61.2,29.84,North,351,0.0,6.0,53,0.00,,,0.00,VWS V14.01,2013-08-09 21:40:00,
2013-08-09 17:45:00,80.1,61.4,29.84,ENE,63,1.0,6.0,53,0.00,,,0.00,VWS V14.01,2013-08-09 21:45:00,
2013-08-09 17:50:00,80.2,62.1,29.84,NE,39,0.0,6.0,54,0.00,,,0.00,VWS V14.01,2013-08-09 21:50:00,
2013-08-09 17:55:00,80.4,62.2,29.84,WNW,297,1.0,6.0,54,0.00,,,0.00,VWS V14.01,2013-08-09 21:55:00,
2013-08-09 18:00:00,80.6,62.4,29.84,ENE,71,2.0,6.0,54,0.00,,,0.00,VWS V14.01,2013-08-09 22:00:00,
2013-08-09 18:05:00,80.5,60.7,29.84,NE,45,0.0,4.0,51,0.00,,,0.00,VWS V14.01,2013-08-09 22:05:00,
2013-08-09 18:10:00,80.6,63.5,29.84,NE,39,0.0,4.0,56,0.00,,,0.00,VWS V14.01,2013-08-09 22:10:00,
2013-08-09 18:15:00,81.0,62.3,29.84,SE,134,1.0,4.0,53,0.00,,,0.00,VWS V14.01,2013-08-09 22:15:00,
2013-08-09 18:20:00,80.8,61.0,29.84,NNE,23,1.0,4.0,51,0.00,,,0.00,VWS V14.01,2013-08-09 22:20:00,
2013-08-09 18:25:00,80.5,61.3,29.84,NNE,25,0.0,4.0,52,0.00,,,0.00,VWS V14.01,2013-08-09 22:25:00,
2013-08-09 18:30:00,80.4,61.7,29.84,NNE,24,0.0,4.0,53,0.00,,,0.00,VWS V14.01,2013-08-09 22:30:00,
2013-08-09 18:35:00,79.9,61.8,29.84,East,79,0.0,4.0,54,0.00,,,0.00,VWS V14.01,2013-08-09 22:35:00,
2013-08-09 18:40:00,79.2,62.2,29.84,East,95,0.0,4.0,56,0.00,,,0.00,VWS V14.01,2013-08-09 22:40:00,
2013-08-09 18:45:00,79.5,63.4,29.84,East,94,0.0,4.0,58,0.00,,,0.00,VWS V14.01,2013-08-09 22:45:00,
2013-08-09 18:50:00,79.8,63.7,29.83,East,93,0.0,4.0,58,0.00,,,0.00,VWS V14.01,2013-08-09 22:50:00,
2013-08-09 18:55:00,80.5,62.3,29.83,NNW,342,0.0,4.0,54,0.00,,,0.00,VWS V14.01,2013-08-09 22:55:00,
2013-08-09 19:00:00,81.0,63.3,29.83,ENE,67,3.0,4.0,55,0.00,,,0.00,VWS V14.01,2013-08-09 23:00:00,
2013-08-09 19:05:00,80.7,62.0,29.83,ENE,70,0.0,1.0,53,0.00,,,0.00,VWS V14.01,2013-08-09 23:05:00,
2013-08-09 19:10:00,80.9,63.2,29.83,ENE,70,0.0,1.0,55,0.00,,,0.00,VWS V14.01,2013-08-09 23:10:00,
2013-08-09 19:15:00,81.1,63.4,29.83,ENE,70,0.0,1.0,55,0.00,,,0.00,VWS V14.01,2013-08-09 23:15:00,
2013-08-09 19:20:00,80.7,63.0,29.83,ENE,71,0.0,1.0,55,0.00,,,0.00,VWS V14.01,2013-08-09 23:20:00,
2013-08-09 19:25:00,79.6,62.5,29.83,ENE,73,0.0,1.0,56,0.00,,,0.00,VWS V14.01,2013-08-09 23:25:00,
2013-08-09 19:30:00,78.6,63.6,29.83,ENE,73,0.0,1.0,60,0.00,,,0.00,VWS V14.01,2013-08-09 23:30:00,
2013-08-09 19:35:00,78.1,64.9,29.83,ENE,73,0.0,1.0,64,0.00,,,0.00,VWS V14.01,2013-08-09 23:35:00,
2013-08-09 19:40:00,77.8,63.8,29.83,ENE,75,0.0,1.0,62,0.00,,,0.00,VWS V14.01,2013-08-09 23:40:00,
2013-08-09 19:45:00,77.6,64.0,29.84,ENE,75,0.0,1.0,63,0.00,,,0.00,VWS V14.01,2013-08-09 23:45:00,
2013-08-09 19:50:00,77.3,64.2,29.84,ENE,75,0.0,1.0,64,0.00,,,0.00,VWS V14.01,2013-08-09 23:50:00,
2013-08-09 19:55:00,77.0,63.5,29.84,ENE,75,0.0,1.0,63,0.00,,,0.00,VWS V14.01,2013-08-09 23:55:00,
2013-08-09 20:00:00,76.7,64.1,29.84,ENE,75,0.0,1.0,65,0.00,,,0.00,VWS V14.01,2013-08-10 00:00:00,
2013-08-09 20:05:00,76.4,64.2,29.84,ENE,75,0.0,0.0,66,0.00,,,0.00,VWS V14.01,2013-08-10 00:05:00,
2013-08-09 20:10:00,76.2,64.9,29.84,ENE,75,0.0,0.0,68,0.00,,,0.00,VWS V14.01,2013-08-10 00:10:00,
2013-08-09 20:15:00,75.7,64.4,29.84,ENE,75,0.0,0.0,68,0.00,,,0.00,VWS V14.01,2013-08-10 00:15:00,
2013-08-09 20:20:00,75.2,64.3,29.84,ENE,74,0.0,0.0,69,0.00,,,0.00,VWS V14.01,2013-08-10 00:20:00,
2013-08-09 20:25:00,74.9,64.9,29.84,ENE,75,0.0,0.0,71,0.00,,,0.00,VWS V14.01,2013-08-10 00:25:00,
2013-08-09 20:30:00,74.5,64.9,29.84,ENE,75,0.0,0.0,72,0.00,,,0.00,VWS V14.01,2013-08-10 00:30:00,
2013-08-09 20:35:00,74.1,64.5,29.85,ENE,75,0.0,0.0,72,0.00,,,0.00,VWS V14.01,2013-08-10 00:35:00,
2013-08-09 20:40:00,73.7,64.1,29.85,ENE,75,0.0,0.0,72,0.00,,,0.00,VWS V14.01,2013-08-10 00:40:00,
2013-08-09 20:45:00,73.4,64.6,29.85,ENE,75,0.0,0.0,74,0.00,,,0.00,VWS V14.01,2013-08-10 00:45:00,
2013-08-09 20:50:00,73.0,64.2,29.85,ENE,74,0.0,0.0,74,0.00,,,0.00,VWS V14.01,2013-08-10 00:50:00,
2013-08-09 20:55:00,72.7,64.3,29.85,ENE,75,0.0,0.0,75,0.00,,,0.00,VWS V14.01,2013-08-10 00:55:00,
2013-08-09 21:00:00,72.3,63.9,29.85,ENE,75,0.0,0.0,75,0.00,,,0.00,VWS V14.01,2013-08-10 01:00:00,
2013-08-09 21:05:00,72.0,63.7,29.85,ENE,75,0.0,0.0,75,0.00,,,0.00,VWS V14.01,2013-08-10 01:05:00,
2013-08-09 21:10:00,71.7,63.7,29.85,ENE,75,0.0,0.0,76,0.00,,,0.00,VWS V14.01,2013-08-10 01:10:00,
2013-08-09 21:15:00,71.5,63.9,29.85,ENE,75,0.0,0.0,77,0.00,,,0.00,VWS V14.01,2013-08-10 01:15:00,
2013-08-09 21:20:00,71.3,63.7,29.85,ENE,74,0.0,0.0,77,0.00,,,0.00,VWS V14.01,2013-08-10 01:20:00,
2013-08-09 21:25:00,71.2,64.4,29.86,ENE,75,0.0,0.0,79,0.00,,,0.00,VWS V14.01,2013-08-10 01:25:00,
2013-08-09 21:30:00,71.1,63.9,29.86,ENE,75,0.0,0.0,78,0.00,,,0.00,VWS V14.01,2013-08-10 01:30:00,
2013-08-09 21:35:00,71.2,63.6,29.86,ENE,75,0.0,0.0,77,0.00,,,0.00,VWS V14.01,2013-08-10 01:35:00,
2013-08-09 21:40:00,71.1,63.9,29.86,ENE,74,0.0,0.0,78,0.00,,,0.00,VWS V14.01,2013-08-10 01:40:00,
2013-08-09 21:45:00,71.0,63.4,29.86,ENE,75,0.0,0.0,77,0.00,,,0.00,VWS V14.01,2013-08-10 01:45:00,
2013-08-09 21:50:00,70.8,63.6,29.87,ENE,75,0.0,0.0,78,0.00,,,0.00,VWS V14.01,2013-08-10 01:50:00,
2013-08-09 21:55:00,70.7,63.9,29.87,ENE,75,0.0,0.0,79,0.00,,,0.00,VWS V14.01,2013-08-10 01:55:00,
2013-08-09 22:00:00,70.5,63.7,29.87,ENE,74,0.0,0.0,79,0.00,,,0.00,VWS V14.01,2013-08-10 02:00:00,
2013-08-09 22:05:00,70.3,63.5,29.87,ENE,75,0.0,0.0,79,0.00,,,0.00,VWS V14.01,2013-08-10 02:05:00,
2013-08-09 22:10:00,70.2,63.8,29.87,ENE,75,0.0,0.0,80,0.00,,,0.00,VWS V14.01,2013-08-10 02:10:00,
2013-08-09 22:15:00,69.9,63.5,29.87,ENE,75,0.0,0.0,80,0.00,,,0.00,VWS V14.01,2013-08-10 02:15:00,
2013-08-09 22:20:00,69.8,63.7,29.87,ENE,75,0.0,0.0,81,0.00,,,0.00,VWS V14.01,2013-08-10 02:20:00,
2013-08-09 22:25:00,69.6,63.9,29.87,ENE,75,0.0,0.0,82,0.00,,,0.00,VWS V14.01,2013-08-10 02:25:00,
2013-08-09 22:30:00,69.4,63.7,29.88,ENE,75,0.0,0.0,82,0.00,,,0.00,VWS V14.01,2013-08-10 02:30:00,
2013-08-09 22:35:00,69.3,64.3,29.87,ENE,75,0.0,0.0,84,0.00,,,0.00,VWS V14.01,2013-08-10 02:35:00,
2013-08-09 22:40:00,69.3,64.3,29.87,ENE,75,0.0,0.0,84,0.00,,,0.00,VWS V14.01,2013-08-10 02:40:00,
2013-08-09 22:45:00,69.3,64.3,29.87,ENE,75,0.0,0.0,84,0.00,,,0.00,VWS V14.01,2013-08-10 02:45:00,
2013-08-09 22:50:00,69.2,64.2,29.87,ENE,75,0.0,0.0,84,0.00,,,0.00,VWS V14.01,2013-08-10 02:50:00,
2013-08-09 22:55:00,69.1,63.7,29.88,ENE,75,0.0,0.0,83,0.00,,,0.00,VWS V14.01,2013-08-10 02:55:00,
2013-08-09 23:00:00,69.0,63.6,29.87,ENE,75,0.0,0.0,83,0.00,,,0.00,VWS V14.01,2013-08-10 03:00:00,
2013-08-09 23:05:00,68.9,63.9,29.88,ENE,75,0.0,0.0,84,0.00,,,0.00,VWS V14.01,2013-08-10 03:05:00,
2013-08-09 23:10:00,68.8,63.8,29.88,ENE,75,0.0,0.0,84,0.00,,,0.00,VWS V14.01,2013-08-10 03:10:00,
2013-08-09 23:15:00,68.8,64.1,29.88,ENE,75,0.0,0.0,85,0.00,,,0.00,VWS V14.01,2013-08-10 03:15:00,
2013-08-09 23:20:00,68.7,64.0,29.88,ENE,75,0.0,0.0,85,0.00,,,0.00,VWS V14.01,2013-08-10 03:20:00,
2013-08-09 23:25:00,68.6,64.2,29.89,ENE,75,0.0,0.0,86,0.00,,,0.00,VWS V14.01,2013-08-10 03:25:00,
2013-08-09 23:30:00,68.5,64.2,29.89,ENE,74,0.0,0.0,86,0.00,,,0.00,VWS V14.01,2013-08-10 03:30:00,
2013-08-09 23:35:00,68.4,64.1,29.89,ENE,75,0.0,0.0,86,0.00,,,0.00,VWS V14.01,2013-08-10 03:35:00,
2013-08-09 23:40:00,68.3,64.0,29.89,ENE,75,0.0,0.0,86,0.00,,,0.00,VWS V14.01,2013-08-10 03:40:00,
2013-08-09 23:45:00,68.2,63.9,29.89,ENE,75,0.0,0.0,86,0.00,,,0.00,VWS V14.01,2013-08-10 03:45:00,
2013-08-09 23:50:00,68.1,64.1,29.89,ENE,74,0.0,0.0,87,0.00,,,0.00,VWS V14.01,2013-08-10 03:50:00,
2013-08-09 23:55:00,68.1,64.1,29.89,ENE,75,0.0,0.0,87,0.00,,,0.00,VWS V14.01,2013-08-10 03:55:00,